Vorticity
6 5 3 3 2 3 3 3 3 3 3 3 4 4 5 6 6 5 6 6 5 5 4 4 4 4 5 6 5 6 4 4 5 4 4 4 5 5 5 6 6 7 8 9 8
12 11 8 7 4 2 5 4 5 4 3 3 4 5 6 7 9 7 7 6 6 5 6 7 7 8 8 7 4 4 4 6 5 5 4 2 4 6 7 7 9 6 6 7 8
13 15 14 17 13 18 15 8 4 6 7 7 7 8 9 9 9 9 9 8 8 8 9 8 9 6 3 5 7 7 7 5 5 5 6 5 5 4 5 12 3 8 7 8 10
10 10 11 8 2 6 7 10 8 11 12 10 7 8 8 9 7 8 10 10 8 8 7 7 7 8 8 6 5 4 5 3 2 6 7 5 7 6 12 6 11 8 9 10 8
6 6 5 9 12 8 12 14 10 11 7 13 12 13 12 11 11 11 10 9 6 7 8 8 7 6 4 3 5 5 7 9 8 9 8 7 11 5 21 11 10 7 8 9 10
9 6 8 13 7 8 5 11 4 7 12 8 7 5 5 3 9 10 6 6 6 4 7 7 6 6 6 9 9 7 7 8 10 9 10 11 14 16 12 8 12 13 11 10 8
16 17 16 17 17 14 9 12 12 9 8 13 2 4 10 9 7 4 5 6 4 6 8 8 8 6 7 8 8 9 9 12 11 9 10 9 17 14 14 9 8 8 7 8 9
11 10 17 18 15 19 13 12 9 9 9 7 8 11 5 8 7 8 7 6 6 7 6 5 7 8 9 8 8 10 10 11 14 13 11 14 21 18 12 8 8 8 7 11 14
9 -9 5 4 14 26 25 16 14 9 11 12 7 3 5 10 8 7 5 9 5 0 5 4 6 7 9 9 9 9 10 13 15 12 14 12 15 10 8 11 10 8 12 15 13
6 0 2 8 10 -15 21 34 21 16 13 15 11 8 10 7 2 8 6 2 6 7 5 9 6 7 9 11 11 12 16 16 14 10 11 12 10 7 8 8 7 9 13 14 13
6 10 2 1 -1 -1 11 -4 24 27 17 12 14 9 9 8 9 6 10 7 5 5 7 9 10 6 11 11 12 14 16 16 11 11 13 11 11 3 6 8 7 12 15 17 21
13 10 9 3 7 4 -0 13 -1 15 37 15 13 10 9 9 9 10 7 6 6 6 10 11 10 11 12 13 15 16 13 11 10 10 9 10 3 7 11 7 12 17 17 22 18
14 10 9 7 9 8 8 5 4 8 14 20 13 12 12 12 11 11 7 7 8 12 10 13 11 11 14 18 17 16 12 8 8 8 7 8 10 11 8 13 16 17 19 24 18
8 7 7 8 5 3 5 5 7 3 3 21 11 11 13 14 14 14 11 7 7 9 10 8 6 12 17 15 13 9 9 11 9 6 10 9 11 13 9 18 20 31 16 4 4
4 2 3 7 8 3 9 -1 11 2 5 5 11 10 18 13 18 13 8 8 11 7 5 10 11 14 17 11 8 4 5 5 6 11 10 7 11 12 22 17 19 4 -1 5 4
4 4 5 7 8 6 9 4 12 7 3 1 8 12 11 13 9 11 9 9 7 5 6 11 13 15 16 9 12 9 3 7 9 11 7 7 10 24 22 19 9 -1 3 5 7
2 3 7 9 5 9 7 11 2 5 11 4 7 11 10 11 11 9 8 10 9 7 9 11 14 16 10 11 14 5 8 10 11 5 9 13 12 20 14 9 2 4 7 8 6
31 14 6 3 7 7 7 6 7 6 8 9 9 8 6 8 9 10 9 10 10 8 9 12 12 14 8 2 12 6 -0 6 10 5 10 13 21 9 20 -3 3 4 7 5 4
22 56 43 32 19 13 10 8 11 5 7 10 9 7 8 8 11 10 9 8 9 9 12 16 14 16 13 12 5 12 10 8 7 6 11 17 23 21 3 5 1 6 7 7 18
31 14 46 17 13 15 9 9 8 7 9 16 10 7 8 8 9 11 10 10 9 7 12 13 14 16 18 2 9 6 10 8 5 7 11 19 24 5 6 5 8 9 7 19 16
18 9 1 53 10 14 19 16 8 8 12 12 10 6 7 8 11 11 11 10 11 10 11 15 16 16 14 11 10 7 11 6 6 10 14 25 11 -0 6 8 8 6 20 13 11
5 16 15 20 32 7 22 21 10 14 14 6 5 5 9 10 10 10 9 10 10 9 13 16 16 18 13 16 10 7 10 8 7 13 16 26 3 4 9 7 7 12 12 15 6
18 -11 5 15 30 15 13 12 14 14 7 6 7 12 6 10 12 10 8 10 11 11 16 15 17 17 7 14 14 10 9 9 6 12 21 -1 3 4 7 8 8 18 14 9 9
-2 8 19 16 32 12 7 15 14 11 8 9 11 6 10 11 6 5 8 10 9 7 18 18 17 14 4 16 14 13 11 9 7 18 20 11 -1 7 6 8 10 14 11 17 2
24 -8 9 15 18 17 5 11 12 10 9 9 8 7 6 7 7 6 5 6 9 5 23 15 17 7 3 8 15 13 9 8 11 21 17 10 7 6 6 7 10 12 15 5 4
18 10 8 30 12 16 8 9 11 9 6 7 9 8 10 9 4 6 1 9 8 10 29 15 23 3 4 10 17 9 10 11 21 26 1 6 5 6 7 5 5 13 10 -2 -3
18 -2 8 15 13 3 12 6 10 7 6 7 8 7 9 8 2 5 7 12 11 22 22 8 17 6 5 17 14 11 12 17 26 6 5 6 5 7 7 4 6 14 11 -4 1
Height
5772 5770 5767 5764 5763 5761 5759 5756 5755 5753 5752 5750 5749 5747 5746 5743 5741 5741 5740 5740 5739 5738 5737 5737 5736 5734 5733 5732 5731 5729 5729 5729 5726 5725 5725 5724 5723 5722 5721 5720 5720 5721 5720 5720 5719
5764 5760 5757 5755 5755 5753 5751 5749 5746 5744 5743 5742 5740 5738 5737 5736 5734 5732 5732 5731 5731 5730 5728 5727 5726 5725 5724 5723 5722 5720 5721 5718 5716 5715 5715 5714 5713 5711 5711 5710 5711 5709 5707 5706 5707
5756 5754 5750 5746 5742 5743 5742 5740 5738 5736 5735 5733 5731 5729 5728 5727 5725 5723 5723 5722 5721 5721 5720 5718 5717 5716 5715 5713 5712 5712 5711 5708 5707 5705 5704 5703 5702 5701 5700 5701 5698 5697 5697 5696 5694
5748 5745 5743 5738 5735 5731 5730 5729 5727 5726 5725 5723 5722 5720 5718 5717 5717 5715 5715 5713 5712 5711 5710 5709 5708 5707 5706 5704 5702 5702 5700 5697 5696 5694 5693 5691 5690 5689 5688 5689 5685 5683 5682 5682 5682
5736 5734 5732 5729 5726 5724 5721 5719 5717 5715 5713 5713 5714 5709 5708 5707 5707 5706 5705 5704 5703 5702 5701 5700 5699 5698 5696 5694 5692 5692 5689 5686 5684 5683 5681 5679 5679 5676 5680 5674 5672 5670 5670 5669 5669
5727 5724 5722 5721 5716 5713 5712 5710 5708 5706 5703 5702 5703 5702 5700 5699 5698 5697 5697 5696 5695 5694 5693 5691 5690 5688 5687 5684 5681 5680 5678 5675 5674 5671 5669 5668 5666 5663 5667 5660 5660 5659 5658 5657 5658
5717 5712 5709 5707 5704 5703 5701 5699 5697 5696 5695 5693 5692 5692 5691 5690 5689 5689 5689 5688 5686 5685 5684 5682 5680 5678 5676 5674 5672 5669 5667 5664 5662 5660 5657 5656 5658 5655 5652 5651 5650 5649 5648 5647 5647
5708 5705 5700 5697 5693 5690 5688 5686 5685 5685 5683 5682 5681 5681 5681 5680 5680 5680 5680 5678 5677 5676 5675 5672 5670 5668 5666 5663 5661 5658 5657 5655 5652 5649 5646 5645 5650 5644 5642 5641 5641 5639 5637 5636 5635
5700 5696 5693 5688 5684 5680 5676 5674 5672 5673 5673 5671 5671 5670 5671 5671 5670 5670 5670 5669 5668 5666 5664 5663 5661 5658 5655 5652 5650 5647 5645 5644 5641 5638 5637 5637 5640 5634 5633 5633 5631 5629 5626 5624 5621
5687 5685 5682 5680 5677 5672 5668 5664 5661 5661 5661 5660 5660 5660 5660 5660 5660 5659 5659 5659 5657 5656 5655 5654 5651 5647 5645 5643 5640 5637 5635 5634 5632 5629 5629 5628 5631 5626 5624 5625 5621 5618 5615 5612 5609
5674 5672 5670 5668 5665 5662 5660 5657 5655 5652 5649 5649 5650 5649 5649 5649 5649 5649 5648 5648 5647 5646 5645 5644 5642 5638 5636 5632 5630 5628 5626 5625 5623 5621 5622 5620 5622 5618 5614 5614 5611 5607 5604 5600 5597
5662 5659 5656 5655 5654 5651 5649 5647 5645 5642 5639 5639 5640 5640 5639 5639 5639 5639 5639 5639 5638 5636 5635 5635 5631 5629 5626 5623 5621 5619 5619 5618 5617 5615 5614 5613 5614 5609 5606 5604 5601 5598 5594 5590 5589
5648 5646 5644 5642 5641 5640 5638 5637 5634 5633 5631 5631 5631 5631 5630 5631 5630 5629 5630 5630 5629 5628 5627 5626 5623 5619 5616 5614 5612 5612 5611 5610 5610 5608 5607 5605 5606 5602 5599 5595 5593 5589 5586 5584 5583
5634 5633 5632 5631 5631 5629 5628 5626 5625 5623 5622 5624 5623 5623 5622 5621 5621 5620 5620 5622 5620 5619 5618 5617 5613 5611 5607 5606 5606 5606 5605 5604 5603 5601 5600 5599 5598 5594 5591 5588 5584 5583 5583 5581 5581
5618 5617 5617 5617 5618 5617 5617 5615 5614 5614 5612 5615 5615 5615 5614 5614 5613 5612 5613 5612 5611 5610 5610 5606 5605 5601 5600 5600 5600 5600 5599 5598 5597 5595 5594 5592 5589 5587 5584 5581 5580 5580 5579 5579 5577
5599 5600 5602 5603 5603 5605 5605 5604 5604 5605 5603 5605 5606 5606 5606 5605 5605 5605 5604 5604 5603 5602 5600 5598 5597 5594 5594 5593 5593 5593 5592 5592 5591 5590 5588 5585 5583 5581 5578 5577 5577 5577 5576 5575 5573
5575 5579 5583 5586 5588 5591 5592 5593 5594 5593 5597 5597 5597 5599 5598 5597 5597 5597 5597 5596 5595 5595 5593 5591 5589 5587 5587 5587 5586 5586 5586 5586 5585 5584 5582 5579 5577 5575 5573 5574 5575 5574 5571 5570 5567
5544 5551 5560 5567 5571 5576 5578 5580 5581 5585 5587 5588 5590 5590 5590 5591 5590 5590 5589 5588 5587 5586 5585 5583 5583 5581 5581 5581 5581 5580 5580 5581 5577 5577 5576 5574 5572 5570 5570 5571 5571 5570 5568 5564 5560
5519 5527 5536 5542 5551 5558 5563 5566 5573 5576 5578 5580 5581 5582 5583 5583 5583 5583 5582 5581 5580 5578 5578 5576 5575 5573 5574 5574 5575 5575 5575 5575 5574 5573 5571 5569 5567 5567 5567 5568 5568 5566 5563 5559 5554
5507 5515 5523 5526 5532 5538 5545 5555 5561 5565 5569 5572 5574 5575 5576 5576 5577 5576 5575 5574 5572 5571 5569 5568 5568 5567 5567 5569 5569 5569 5571 5570 5569 5567 5566 5564 5563 5564 5566 5565 5564 5562 5558 5553 5551
5501 5506 5514 5516 5522 5526 5531 5541 5550 5555 5561 5565 5567 5568 5570 5569 5569 5569 5568 5567 5566 5564 5562 5561 5561 5562 5561 5562 5563 5565 5564 5565 5564 5564 5562 5561 5562 5563 5563 5562 5561 5557 5553 5550 5548
5496 5500 5504 5507 5512 5519 5527 5534 5540 5545 5552 5556 5560 5562 5563 5563 5563 5563 5563 5561 5559 5557 5556 5554 5553 5554 5556 5556 5557 5559 5559 5560 5559 5560 5558 5558 5562 5562 5561 5559 5557 5554 5550 5548 5546
5489 5495 5498 5500 5504 5514 5522 5527 5532 5539 5545 5550 5553 5556 5557 5558 5558 5557 5556 5555 5554 5552 5550 5548 5548 5549 5552 5553 5553 5554 5555 5555 5555 5554 5554 5556 5559 5560 5558 5557 5554 5551 5549 5547 5545
5486 5491 5494 5496 5501 5509 5516 5522 5528 5533 5539 5544 5548 5550 5551 5552 5552 5552 5552 5551 5549 5546 5544 5542 5544 5545 5548 5548 5548 5550 5550 5550 5550 5551 5551 5553 5556 5557 5555 5555 5552 5549 5548 5547 5542
5481 5487 5490 5491 5497 5504 5512 5519 5524 5530 5535 5539 5543 5545 5547 5548 5547 5548 5547 5546 5544 5541 5539 5539 5540 5541 5543 5543 5544 5545 5545 5546 5546 5547 5549 5553 5554 5554 5554 5553 5550 5549 5547 5546 5540
5477 5483 5486 5489 5495 5501 5508 5516 5521 5526 5531 5535 5538 5541 5542 5543 5544 5543 5542 5541 5539 5537 5535 5535 5537 5537 5539 5539 5540 5541 5541 5542 5543 5544 5548 5551 5552 5552 5552 5552 5550 5548 5548 5546 5541
5472 5479 5483 5487 5492 5498 5505 5511 5517 5522 5527 5531 5534 5537 5538 5540 5539 5539 5538 5537 5534 5532 5531 5532 5533 5535 5536 5536 5536 5538 5538 5538 5541 5544 5548 5549 5550 5549 5549 5549 5549 5548 5548 5547 5543